,,PA_Meas_PMT16A,,PR_Meas_QMR101_102,,RH_Meas_QMH101,,SR_Meas_QMS101,,TA_Meas_QMH101,,GenWind,,GenWind,
time,status,PA,status,PR,status,RH,status,SR,status,TA,status,DirAvg,status,SpdAvg,
2012-05-15, 00:00:04,VALID,918.273,VALID,0,VALID,96.0093,VALID,0,VALID,19.2528,VALID,334,VALID,0,
2012-05-15, 00:01:04,VALID,918.242,VALID,0,VALID,96.1084,VALID,0,VALID,19.2514,VALID,334,VALID,0,
2012-05-15, 00:02:04,VALID,918.283,VALID,0,VALID,95.6662,VALID,0,VALID,19.1568,VALID,334,VALID,0,
2012-05-15, 00:03:04,VALID,918.267,VALID,0,VALID,95.6129,VALID,0,VALID,18.9799,VALID,334,VALID,0,
2012-05-15, 00:04:04,VALID,918.264,VALID,0,VALID,96.1541,VALID,0,VALID,19.1164,VALID,334,VALID,0,
2012-05-15, 00:05:04,VALID,918.224,VALID,0,VALID,96.4972,VALID,0,VALID,19.2528,VALID,334,VALID,0,
2012-05-15, 00:06:04,VALID,918.234,VALID,0,VALID,96.36,VALID,0,VALID,19.2334,VALID,334,VALID,0,
2012-05-15, 00:07:04,VALID,918.199,VALID,0,VALID,96.3447,VALID,0,VALID,19.2528,VALID,334,VALID,0,
2012-05-15, 00:08:04,VALID,918.173,VALID,0,VALID,96.3752,VALID,0,VALID,19.2334,VALID,334,VALID,0,
2012-05-15, 00:09:04,VALID,918.188,VALID,0,VALID,96.3981,VALID,0,VALID,19.2738,VALID,334,VALID,0,
2012-05-15, 00:10:04,VALID,918.171,VALID,0,VALID,96.36,VALID,0,VALID,19.2139,VALID,334,VALID,0,
2012-05-15, 00:11:04,VALID,918.156,VALID,0,VALID,96.2609,VALID,0,VALID,19.1958,VALID,334,VALID,0,
2012-05-15, 00:12:04,VALID,918.141,VALID,0,VALID,96.2456,VALID,0,VALID,19.1554,VALID,334,VALID,0,
2012-05-15, 00:13:04,VALID,918.125,VALID,0,VALID,96.2837,VALID,0.107441,VALID,19.1554,VALID,334,VALID,0,
2012-05-15, 00:14:04,VALID,918.128,VALID,0,VALID,96.2151,VALID,0,VALID,19.0954,VALID,334,VALID,0,
2012-05-15, 00:15:04,VALID,918.116,VALID,0,VALID,96.2304,VALID,0,VALID,19.1178,VALID,334,VALID,0,
2012-05-15, 00:16:04,VALID,918.102,VALID,0,VALID,96.2533,VALID,0,VALID,19.0983,VALID,334,VALID,0,
2012-05-15, 00:17:04,VALID,918.069,VALID,0,VALID,96.2456,VALID,0,VALID,19.0788,VALID,334,VALID,0,
2012-05-15, 00:18:04,VALID,918.059,VALID,0,VALID,96.116,VALID,0,VALID,19.0189,VALID,334,VALID,0,
2012-05-15, 00:19:04,VALID,918.061,VALID,0,VALID,96.3066,VALID,0,VALID,19.0998,VALID,334,VALID,0,
2012-05-15, 00:20:04,VALID,918.052,VALID,0,VALID,96.36,VALID,0,VALID,19.1373,VALID,334,VALID,0,
2012-05-15, 00:21:04,VALID,918.046,VALID,0,VALID,96.36,VALID,0,VALID,19.1568,VALID,334,VALID,0,
2012-05-15, 00:22:04,VALID,918.114,VALID,0,VALID,96.4057,VALID,0,VALID,19.1958,VALID,334,VALID,0,
2012-05-15, 00:23:04,VALID,918.122,VALID,0,VALID,96.4057,VALID,0,VALID,19.2153,VALID,334,VALID,0,
2012-05-15, 00:24:04,VALID,918.114,VALID,0,VALID,96.3752,VALID,0,VALID,19.1944,VALID,334,VALID,0,
2012-05-15, 00:25:04,VALID,918.114,VALID,0,VALID,96.3752,VALID,0,VALID,19.2168,VALID,334,VALID,0,
2012-05-15, 00:26:04,VALID,918.106,VALID,0,VALID,96.3219,VALID,0,VALID,19.1944,VALID,334,VALID,0,
2012-05-15, 00:27:04,VALID,918.112,VALID,0,VALID,96.4057,VALID,0,VALID,19.2139,VALID,334,VALID,0.0597656,
2012-05-15, 00:28:04,VALID,918.08,VALID,0,VALID,96.3219,VALID,0,VALID,19.1763,VALID,334,VALID,0,
2012-05-15, 00:29:04,VALID,918.105,VALID,0,VALID,96.2837,VALID,0,VALID,19.1164,VALID,334,VALID,0,
2012-05-15, 00:30:05,VALID,918.1,VALID,0,VALID,96.2761,VALID,0,VALID,19.1178,VALID,334,VALID,0,
2012-05-15, 00:31:05,VALID,918.096,VALID,0,VALID,96.3066,VALID,0.107441,VALID,19.0969,VALID,334,VALID,0,
2012-05-15, 00:32:05,VALID,918.083,VALID,0,VALID,96.3829,VALID,0,VALID,19.0954,VALID,334,VALID,0,
2012-05-15, 00:33:05,VALID,918.076,VALID,0,VALID,96.3142,VALID,0,VALID,19.0788,VALID,334,VALID,0,
2012-05-15, 00:34:05,VALID,918.064,VALID,0,VALID,96.1465,VALID,0.107441,VALID,18.9604,VALID,334,VALID,0,
2012-05-15, 00:35:05,VALID,918.052,VALID,0,VALID,96.2304,VALID,0,VALID,18.9604,VALID,334,VALID,0,
2012-05-15, 00:36:05,VALID,918.06,VALID,0,VALID,96.1846,VALID,0,VALID,18.9019,VALID,334,VALID,0.257813,
2012-05-15, 00:37:05,VALID,918.021,VALID,0,VALID,96.2609,VALID,0,VALID,18.8824,VALID,334,VALID,0.392578,
2012-05-15, 00:38:05,VALID,918.015,VALID,0,VALID,96.4896,VALID,0,VALID,18.9214,VALID,206,VALID,1.07148,
2012-05-15, 00:39:05,VALID,917.978,VALID,0,VALID,96.6115,VALID,0,VALID,18.9814,VALID,159,VALID,0.673437,
2012-05-15, 00:40:05,VALID,917.996,VALID,0,VALID,96.6878,VALID,0,VALID,18.9799,VALID,159,VALID,0.932422,
2012-05-15, 00:41:05,VALID,918.017,VALID,0,VALID,96.7107,VALID,0,VALID,18.9799,VALID,159,VALID,0.891406,
2012-05-15, 00:42:05,VALID,917.986,VALID,0,VALID,96.7564,VALID,0,VALID,18.9799,VALID,159,VALID,0.958203,
2012-05-15, 00:43:05,VALID,918.007,VALID,0,VALID,96.7259,VALID,0,VALID,18.9619,VALID,159,VALID,0.547266,
2012-05-15, 00:44:05,VALID,918.004,VALID,0,VALID,96.8174,VALID,0,VALID,18.9604,VALID,159,VALID,0.538672,
2012-05-15, 00:45:05,VALID,917.99,VALID,0,VALID,96.8555,VALID,0.107441,VALID,18.9604,VALID,159,VALID,0.651172,
2012-05-15, 00:46:05,VALID,917.967,VALID,0,VALID,96.8936,VALID,0,VALID,18.9814,VALID,159,VALID,0.516406,
2012-05-15, 00:47:05,VALID,917.967,VALID,0,VALID,96.9241,VALID,0,VALID,18.959,VALID,159,VALID,0.0480469,
2012-05-15, 00:48:05,VALID,917.98,VALID,0,VALID,96.9089,VALID,0,VALID,18.9604,VALID,159,VALID,0.427734,
2012-05-15, 00:49:05,VALID,917.944,VALID,0,VALID,96.9089,VALID,0.107441,VALID,18.9409,VALID,159,VALID,0.637109,
2012-05-15, 00:50:05,VALID,917.948,VALID,0,VALID,96.9165,VALID,0,VALID,18.9214,VALID,159,VALID,0.585156,
2012-05-15, 00:51:05,VALID,917.962,VALID,0,VALID,96.947,VALID,0,VALID,18.9019,VALID,137,VALID,0.638281,
2012-05-15, 00:52:05,VALID,917.915,VALID,0,VALID,97.0003,VALID,0.107441,VALID,18.9019,VALID,137,VALID,0.578516,
2012-05-15, 00:53:05,VALID,917.968,VALID,0,VALID,97.0308,VALID,0,VALID,18.9424,VALID,137,VALID,0.973828,
2012-05-15, 00:54:05,VALID,917.933,VALID,0,VALID,97.0918,VALID,0,VALID,18.9409,VALID,137,VALID,0.610156,
2012-05-15, 00:55:05,VALID,917.945,VALID,0,VALID,97.0994,VALID,0,VALID,18.9604,VALID,137,VALID,0.423438,
2012-05-15, 00:56:05,VALID,917.939,VALID,0,VALID,97.0766,VALID,0,VALID,18.9409,VALID,137,VALID,0.760156,
2012-05-15, 00:57:05,VALID,917.918,VALID,0,VALID,97.069,VALID,0,VALID,18.9214,VALID,137,VALID,0.673437,
2012-05-15, 00:58:05,VALID,917.939,VALID,0,VALID,97.0994,VALID,0,VALID,18.9214,VALID,137,VALID,0.944922,
2012-05-15, 00:59:05,VALID,917.9,VALID,0,VALID,97.1299,VALID,0,VALID,18.9214,VALID,137,VALID,0.730078,
2012-05-15, 01:00:05,VALID,917.916,VALID,0,VALID,97.1147,VALID,0,VALID,18.9019,VALID,137,VALID,0.567578,
2012-05-15, 01:01:05,VALID,917.891,VALID,0,VALID,97.1223,VALID,0,VALID,18.9229,VALID,137,VALID,0.498047,
2012-05-15, 01:02:05,VALID,917.87,VALID,0,VALID,97.0232,VALID,0.107441,VALID,18.824,VALID,137,VALID,0.286328,
2012-05-15, 01:03:05,VALID,917.835,VALID,0,VALID,97.1223,VALID,0,VALID,18.8045,VALID,137,VALID,0.53125,
2012-05-15, 01:04:05,VALID,917.819,VALID,0,VALID,97.1376,VALID,0,VALID,18.824,VALID,137,VALID,0.153125,
2012-05-15, 01:05:05,VALID,917.828,VALID,0,VALID,97.1452,VALID,0.107441,VALID,18.8045,VALID,137,VALID,0.379687,
2012-05-15, 01:06:05,VALID,917.828,VALID,0,VALID,97.1528,VALID,0.107441,VALID,18.7835,VALID,137,VALID,0,
2012-05-15, 01:07:05,VALID,917.807,VALID,0,VALID,97.1986,VALID,0,VALID,18.824,VALID,137,VALID,0,
2012-05-15, 01:08:05,VALID,917.792,VALID,0,VALID,97.2138,VALID,0,VALID,18.8434,VALID,137,VALID,0,
2012-05-15, 01:09:05,VALID,917.781,VALID,0,VALID,97.2443,VALID,0,VALID,18.8434,VALID,137,VALID,0,
2012-05-15, 01:10:05,VALID,917.815,VALID,0,VALID,97.2214,VALID,0,VALID,18.8629,VALID,137,VALID,0,
2012-05-15, 01:11:05,VALID,917.767,VALID,0,VALID,97.229,VALID,0,VALID,18.8434,VALID,137,VALID,0,
2012-05-15, 01:12:05,VALID,917.744,VALID,0,VALID,97.2443,VALID,0,VALID,18.8434,VALID,137,VALID,0,
2012-05-15, 01:13:05,VALID,917.703,VALID,0,VALID,97.2519,VALID,0,VALID,18.8225,VALID,137,VALID,0,
2012-05-15, 01:14:05,VALID,917.698,VALID,0,VALID,97.2824,VALID,0,VALID,18.9019,VALID,137,VALID,1.10586,
2012-05-15, 01:15:05,VALID,917.692,VALID,0,VALID,97.2824,VALID,0,VALID,18.9019,VALID,137,VALID,0.784766,
2012-05-15, 01:16:05,VALID,917.686,VALID,0,VALID,97.29,VALID,0,VALID,18.9214,VALID,137,VALID,0.635547,
2012-05-15, 01:17:05,VALID,917.689,VALID,0,VALID,97.3129,VALID,0,VALID,18.8824,VALID,137,VALID,0.525781,
2012-05-15, 01:18:05,VALID,917.673,VALID,0,VALID,97.2824,VALID,0,VALID,18.8434,VALID,137,VALID,0.175,
2012-05-15, 01:19:05,VALID,917.686,VALID,0,VALID,97.2977,VALID,0,VALID,18.8434,VALID,137,VALID,0.00585938,
2012-05-15, 01:20:05,VALID,917.666,VALID,0,VALID,97.2824,VALID,0,VALID,18.8045,VALID,137,VALID,0,
2012-05-15, 01:21:05,VALID,917.67,VALID,0,VALID,97.2977,VALID,0,VALID,18.785,VALID,137,VALID,0.00078125,
2012-05-15, 01:22:05,VALID,917.645,VALID,0,VALID,97.3129,VALID,0,VALID,18.7655,VALID,137,VALID,0,
2012-05-15, 01:23:05,VALID,917.648,VALID,0,VALID,97.2977,VALID,0,VALID,18.7265,VALID,137,VALID,0,
2012-05-15, 01:24:05,VALID,917.648,VALID,0,VALID,97.3053,VALID,0,VALID,18.668,VALID,137,VALID,0.638672,
2012-05-15, 01:25:05,VALID,917.611,VALID,0,VALID,97.3053,VALID,0,VALID,18.6485,VALID,137,VALID,0.729688,
2012-05-15, 01:26:05,VALID,917.666,VALID,0,VALID,97.3281,VALID,0,VALID,18.6304,VALID,137,VALID,0.765234,
2012-05-15, 01:27:05,VALID,917.639,VALID,0,VALID,97.3205,VALID,0,VALID,18.629,VALID,149,VALID,0.687891,
2012-05-15, 01:28:05,VALID,917.644,VALID,0,VALID,97.3205,VALID,0,VALID,18.6513,VALID,162,VALID,0.525781,
2012-05-15, 01:29:05,VALID,917.644,VALID,0,VALID,97.3586,VALID,0,VALID,18.6109,VALID,162,VALID,0.4625,
2012-05-15, 01:30:05,VALID,917.613,VALID,0,VALID,97.3663,VALID,0,VALID,18.6304,VALID,162,VALID,0.114453,
2012-05-15, 01:31:05,VALID,917.608,VALID,0,VALID,97.3815,VALID,0,VALID,18.7084,VALID,162,VALID,0.153906,
2012-05-15, 01:32:05,VALID,917.6,VALID,0,VALID,97.3891,VALID,0,VALID,18.7279,VALID,162,VALID,0,
2012-05-15, 01:33:05,VALID,917.566,VALID,0,VALID,97.3739,VALID,0,VALID,18.6499,VALID,162,VALID,0,
2012-05-15, 01:34:05,VALID,917.571,VALID,0,VALID,97.351,VALID,0,VALID,18.572,VALID,162,VALID,0,
2012-05-15, 01:35:05,VALID,917.516,VALID,0,VALID,97.3358,VALID,0,VALID,18.494,VALID,162,VALID,0,
2012-05-15, 01:36:05,VALID,917.49,VALID,0,VALID,97.351,VALID,0,VALID,18.494,VALID,162,VALID,0,
2012-05-15, 01:37:05,VALID,917.494,VALID,0,VALID,97.351,VALID,0,VALID,18.494,VALID,162,VALID,0,
2012-05-15, 01:38:05,VALID,917.472,VALID,0,VALID,97.3739,VALID,0,VALID,18.494,VALID,162,VALID,0,
2012-05-15, 01:39:05,VALID,917.492,VALID,0,VALID,97.3815,VALID,0,VALID,18.4355,VALID,162,VALID,0.572266,
2012-05-15, 01:40:05,VALID,917.497,VALID,0,VALID,97.3891,VALID,0,VALID,18.4745,VALID,162,VALID,0.571484,
2012-05-15, 01:41:05,VALID,917.528,VALID,0,VALID,97.412,VALID,0,VALID,18.5135,VALID,162,VALID,0,
2012-05-15, 01:42:05,VALID,917.519,VALID,0,VALID,97.412,VALID,0,VALID,18.5316,VALID,162,VALID,0,
2012-05-15, 01:43:05,VALID,917.55,VALID,0,VALID,97.4425,VALID,0,VALID,18.5705,VALID,162,VALID,0,
2012-05-15, 01:44:05,VALID,917.525,VALID,0,VALID,97.4501,VALID,0,VALID,18.6485,VALID,162,VALID,0,
2012-05-15, 01:45:05,VALID,917.53,VALID,0,VALID,97.4654,VALID,0,VALID,18.7279,VALID,162,VALID,0,
2012-05-15, 01:46:05,VALID,917.528,VALID,0,VALID,97.473,VALID,0.107441,VALID,18.6875,VALID,162,VALID,0,
2012-05-15, 01:47:05,VALID,917.523,VALID,0,VALID,97.4654,VALID,0,VALID,18.6875,VALID,162,VALID,0,
2012-05-15, 01:48:05,VALID,917.523,VALID,0,VALID,97.473,VALID,0,VALID,18.6485,VALID,162,VALID,0,
2012-05-15, 01:49:05,VALID,917.497,VALID,0,VALID,97.4806,VALID,0,VALID,18.6095,VALID,162,VALID,0,
2012-05-15, 01:50:05,VALID,917.49,VALID,0,VALID,97.4882,VALID,0,VALID,18.59,VALID,162,VALID,0,
2012-05-15, 01:51:05,VALID,917.498,VALID,0,VALID,97.4806,VALID,0,VALID,18.5705,VALID,162,VALID,0,
2012-05-15, 01:52:05,VALID,917.466,VALID,0,VALID,97.4654,VALID,0,VALID,18.6109,VALID,162,VALID,0,
2012-05-15, 01:53:05,VALID,917.469,VALID,0,VALID,97.473,VALID,0,VALID,18.5511,VALID,162,VALID,0,
2012-05-15, 01:54:05,VALID,917.438,VALID,0,VALID,97.4654,VALID,0.107441,VALID,18.4146,VALID,162,VALID,0,
2012-05-15, 01:55:05,VALID,917.457,VALID,0,VALID,97.4425,VALID,0,VALID,18.3366,VALID,162,VALID,0,
2012-05-15, 01:56:05,VALID,917.424,VALID,0,VALID,97.4501,VALID,0,VALID,18.2977,VALID,162,VALID,0,
2012-05-15, 01:57:05,VALID,917.406,VALID,0,VALID,97.4501,VALID,0,VALID,18.2977,VALID,162,VALID,0,
2012-05-15, 01:58:05,VALID,917.39,VALID,0,VALID,97.4577,VALID,0,VALID,18.2782,VALID,162,VALID,0,
2012-05-15, 01:59:05,VALID,917.404,VALID,0,VALID,97.4349,VALID,0,VALID,18.2211,VALID,162,VALID,0,
2012-05-15, 02:00:05,VALID,917.414,VALID,0,VALID,97.3968,VALID,0,VALID,18.0443,VALID,162,VALID,0,
2012-05-15, 02:01:05,VALID,917.43,VALID,0,VALID,97.3968,VALID,0,VALID,17.9858,VALID,162,VALID,0,
2012-05-15, 02:02:05,VALID,917.417,VALID,0,VALID,97.412,VALID,0,VALID,17.9872,VALID,162,VALID,0,
2012-05-15, 02:03:05,VALID,917.424,VALID,0,VALID,97.4501,VALID,0,VALID,17.9468,VALID,162,VALID,0,
2012-05-15, 02:04:05,VALID,917.432,VALID,0,VALID,97.4273,VALID,0,VALID,17.8897,VALID,162,VALID,0,
2012-05-15, 02:05:05,VALID,917.425,VALID,0,VALID,97.4273,VALID,0,VALID,17.8104,VALID,162,VALID,0,
2012-05-15, 02:06:05,VALID,917.442,VALID,0,VALID,97.4349,VALID,0,VALID,17.8689,VALID,162,VALID,0,
2012-05-15, 02:07:05,VALID,917.433,VALID,0,VALID,97.4577,VALID,0,VALID,17.8897,VALID,162,VALID,0,
2012-05-15, 02:08:05,VALID,917.421,VALID,0,VALID,97.4959,VALID,0,VALID,17.8897,VALID,162,VALID,0,
2012-05-15, 02:09:05,VALID,917.41,VALID,0,VALID,97.5035,VALID,0,VALID,17.8494,VALID,162,VALID,0,
2012-05-15, 02:10:05,VALID,917.392,VALID,0,VALID,97.5416,VALID,0,VALID,17.8299,VALID,162,VALID,0,
2012-05-15, 02:11:05,VALID,917.349,VALID,0,VALID,97.5416,VALID,0,VALID,17.9092,VALID,162,VALID,0,
2012-05-15, 02:12:05,VALID,917.355,VALID,0,VALID,97.5797,VALID,0,VALID,18.0248,VALID,162,VALID,0,
2012-05-15, 02:13:05,VALID,917.363,VALID,0,VALID,97.6026,VALID,0,VALID,18.0846,VALID,162,VALID,0,
2012-05-15, 02:14:05,VALID,917.337,VALID,0,VALID,97.6026,VALID,0,VALID,18.0833,VALID,162,VALID,0,
2012-05-15, 02:15:05,VALID,917.322,VALID,0,VALID,97.6026,VALID,0,VALID,18.1612,VALID,162,VALID,0,
2012-05-15, 02:16:05,VALID,917.322,VALID,0,VALID,97.6178,VALID,0,VALID,18.2016,VALID,162,VALID,0,
2012-05-15, 02:17:05,VALID,917.296,VALID,0,VALID,97.6407,VALID,0,VALID,18.2002,VALID,162,VALID,0,
2012-05-15, 02:18:05,VALID,917.275,VALID,0,VALID,97.6407,VALID,0,VALID,18.2587,VALID,162,VALID,0,
2012-05-15, 02:19:05,VALID,917.243,VALID,0,VALID,97.6178,VALID,0,VALID,18.1807,VALID,162,VALID,0,
2012-05-15, 02:20:05,VALID,917.234,VALID,0,VALID,97.6407,VALID,0,VALID,18.2392,VALID,127,VALID,0,
2012-05-15, 02:21:05,VALID,917.205,VALID,0,VALID,97.6483,VALID,0.107441,VALID,18.2587,VALID,127,VALID,0,
2012-05-15, 02:22:05,VALID,917.202,VALID,0,VALID,97.6407,VALID,0,VALID,18.2392,VALID,127,VALID,0,
2012-05-15, 02:23:05,VALID,917.179,VALID,0,VALID,97.6255,VALID,0,VALID,18.2782,VALID,136,VALID,0,
2012-05-15, 02:24:05,VALID,917.148,VALID,0,VALID,97.6407,VALID,0,VALID,18.2601,VALID,136,VALID,0,
2012-05-15, 02:25:05,VALID,917.107,VALID,0,VALID,97.6331,VALID,0,VALID,18.299,VALID,136,VALID,0,
2012-05-15, 02:26:05,VALID,917.063,VALID,0,VALID,97.6483,VALID,0,VALID,18.2977,VALID,136,VALID,0,
2012-05-15, 02:27:05,VALID,917.052,VALID,0,VALID,97.6636,VALID,0,VALID,18.3366,VALID,136,VALID,0,
2012-05-15, 02:28:05,VALID,917.009,VALID,0,VALID,97.656,VALID,0,VALID,18.3965,VALID,136,VALID,0,
2012-05-15, 02:29:05,VALID,916.992,VALID,0,VALID,97.6712,VALID,0,VALID,18.416,VALID,136,VALID,0,
2012-05-15, 02:30:05,VALID,916.982,VALID,0,VALID,97.6712,VALID,0,VALID,18.4745,VALID,136,VALID,0,
2012-05-15, 02:31:05,VALID,916.983,VALID,0,VALID,97.6636,VALID,0.107441,VALID,18.4926,VALID,136,VALID,0,
2012-05-15, 02:32:05,VALID,916.984,VALID,0,VALID,97.6788,VALID,0,VALID,18.4745,VALID,136,VALID,0,
2012-05-15, 02:33:05,VALID,916.931,VALID,0,VALID,97.6636,VALID,0,VALID,18.4536,VALID,136,VALID,0,
2012-05-15, 02:34:05,VALID,916.945,VALID,0,VALID,97.6712,VALID,0,VALID,18.4745,VALID,136,VALID,0,
2012-05-15, 02:35:05,VALID,916.928,VALID,0,VALID,97.6712,VALID,0,VALID,18.4745,VALID,136,VALID,0,
2012-05-15, 02:36:05,VALID,916.938,VALID,0,VALID,97.6636,VALID,0,VALID,18.4341,VALID,136,VALID,0,
2012-05-15, 02:37:05,VALID,916.9,VALID,0,VALID,97.6788,VALID,0,VALID,18.4341,VALID,136,VALID,0,
2012-05-15, 02:38:05,VALID,916.928,VALID,0,VALID,97.6941,VALID,0,VALID,18.4146,VALID,136,VALID,0,
2012-05-15, 02:39:05,VALID,916.905,VALID,0,VALID,97.6712,VALID,0.107441,VALID,18.4146,VALID,136,VALID,0,
2012-05-15, 02:40:05,VALID,916.931,VALID,0,VALID,97.6712,VALID,0,VALID,18.4146,VALID,136,VALID,0,
2012-05-15, 02:41:05,VALID,916.915,VALID,0,VALID,97.6865,VALID,0,VALID,18.4355,VALID,136,VALID,0,
2012-05-15, 02:42:05,VALID,916.912,VALID,0,VALID,97.6712,VALID,0,VALID,18.4355,VALID,136,VALID,0,
2012-05-15, 02:43:05,VALID,916.907,VALID,0,VALID,97.6788,VALID,0,VALID,18.4355,VALID,136,VALID,0,
2012-05-15, 02:44:05,VALID,916.915,VALID,0,VALID,97.6712,VALID,0,VALID,18.4355,VALID,136,VALID,0,
2012-05-15, 02:45:05,VALID,916.936,VALID,0,VALID,97.6941,VALID,0,VALID,18.455,VALID,136,VALID,0,
2012-05-15, 02:46:05,VALID,916.882,VALID,0,VALID,97.6788,VALID,0,VALID,18.4355,VALID,136,VALID,0,
2012-05-15, 02:47:05,VALID,916.926,VALID,0,VALID,97.6788,VALID,0,VALID,18.4355,VALID,136,VALID,0,
2012-05-15, 02:48:05,VALID,916.909,VALID,0,VALID,97.6788,VALID,0,VALID,18.4564,VALID,139,VALID,0,
2012-05-15, 02:49:05,VALID,916.911,VALID,0,VALID,97.6788,VALID,0,VALID,18.455,VALID,139,VALID,0,
2012-05-15, 02:50:05,VALID,916.906,VALID,0,VALID,97.6941,VALID,0,VALID,18.455,VALID,139,VALID,0,
2012-05-15, 02:51:05,VALID,916.921,VALID,0,VALID,97.7017,VALID,0,VALID,18.4745,VALID,139,VALID,0,
2012-05-15, 02:52:05,VALID,916.876,VALID,0,VALID,97.6941,VALID,0,VALID,18.4745,VALID,155,VALID,0,
2012-05-15, 02:53:05,VALID,916.834,VALID,0,VALID,97.6788,VALID,0,VALID,18.5135,VALID,159,VALID,0,
2012-05-15, 02:54:05,VALID,916.836,VALID,0,VALID,97.6941,VALID,0,VALID,18.5149,VALID,159,VALID,0,
2012-05-15, 02:55:05,VALID,916.809,VALID,0,VALID,97.6788,VALID,0,VALID,18.494,VALID,159,VALID,0,
2012-05-15, 02:56:05,VALID,916.778,VALID,0,VALID,97.6941,VALID,0,VALID,18.4731,VALID,159,VALID,0,
2012-05-15, 02:57:05,VALID,916.78,VALID,0,VALID,97.6941,VALID,0,VALID,18.4341,VALID,159,VALID,0,
2012-05-15, 02:58:05,VALID,916.737,VALID,0,VALID,97.7093,VALID,0.107441,VALID,18.3951,VALID,159,VALID,0,
2012-05-15, 02:59:05,VALID,916.75,VALID,0,VALID,97.7017,VALID,0,VALID,18.3756,VALID,159,VALID,0,
2012-05-15, 03:00:05,VALID,916.725,VALID,0,VALID,97.7017,VALID,0,VALID,18.3561,VALID,159,VALID,0,
2012-05-15, 03:01:05,VALID,916.643,VALID,0,VALID,97.7093,VALID,0,VALID,18.3366,VALID,156,VALID,0,
2012-05-15, 03:02:05,VALID,916.629,VALID,0,VALID,97.6941,VALID,0,VALID,18.3172,VALID,147,VALID,0,
2012-05-15, 03:03:05,VALID,916.583,VALID,0,VALID,97.6941,VALID,0,VALID,18.3172,VALID,147,VALID,0,
2012-05-15, 03:04:05,VALID,916.523,VALID,0,VALID,97.7169,VALID,0,VALID,18.3172,VALID,147,VALID,0,
2012-05-15, 03:05:05,VALID,916.486,VALID,0,VALID,97.6941,VALID,0,VALID,18.3366,VALID,147,VALID,0,
2012-05-15, 03:06:05,VALID,916.504,VALID,0,VALID,97.7093,VALID,0,VALID,18.377,VALID,145,VALID,0,
2012-05-15, 03:07:05,VALID,916.531,VALID,0,VALID,97.7169,VALID,0,VALID,18.3561,VALID,136,VALID,0,
2012-05-15, 03:08:05,VALID,916.508,VALID,0,VALID,97.7093,VALID,0,VALID,18.3756,VALID,136,VALID,0,
2012-05-15, 03:09:05,VALID,916.495,VALID,0,VALID,97.7093,VALID,0,VALID,18.3756,VALID,152,VALID,0,
2012-05-15, 03:10:05,VALID,916.49,VALID,0,VALID,97.7322,VALID,0.107441,VALID,18.3352,VALID,140,VALID,0,
2012-05-15, 03:11:05,VALID,916.472,VALID,0,VALID,97.7246,VALID,0,VALID,18.416,VALID,133,VALID,0,
2012-05-15, 03:12:05,VALID,916.471,VALID,0,VALID,97.7093,VALID,0,VALID,18.416,VALID,137,VALID,0,
2012-05-15, 03:13:05,VALID,916.494,VALID,0,VALID,97.7246,VALID,0,VALID,18.416,VALID,133,VALID,0,
2012-05-15, 03:14:05,VALID,916.494,VALID,0,VALID,97.7093,VALID,0,VALID,18.4146,VALID,97,VALID,0,
2012-05-15, 03:15:04,VALID,916.497,VALID,0,VALID,97.7246,VALID,0,VALID,18.4341,VALID,121,VALID,0,
2012-05-15, 03:16:04,VALID,916.483,VALID,0,VALID,97.7474,VALID,0,VALID,18.4536,VALID,121,VALID,0,
2012-05-15, 03:17:04,VALID,916.53,VALID,0,VALID,97.7322,VALID,0,VALID,18.4536,VALID,122,VALID,0,
2012-05-15, 03:18:04,VALID,916.495,VALID,0,VALID,97.7322,VALID,0,VALID,18.4926,VALID,121,VALID,0,
2012-05-15, 03:19:04,VALID,916.502,VALID,0,VALID,97.7322,VALID,0,VALID,18.5135,VALID,152,VALID,0,
2012-05-15, 03:20:04,VALID,916.475,VALID,0,VALID,97.7398,VALID,0,VALID,18.5135,VALID,146,VALID,0,
2012-05-15, 03:21:04,VALID,916.465,VALID,0,VALID,97.7246,VALID,0,VALID,18.5121,VALID,144,VALID,0,
2012-05-15, 03:22:04,VALID,916.461,VALID,0,VALID,97.7398,VALID,0.107441,VALID,18.4912,VALID,148,VALID,0,
2012-05-15, 03:23:04,VALID,916.439,VALID,0,VALID,97.7474,VALID,0.107441,VALID,18.5316,VALID,145,VALID,0,
2012-05-15, 03:24:04,VALID,916.425,VALID,0,VALID,97.7398,VALID,0,VALID,18.5511,VALID,153,VALID,0,
2012-05-15, 03:25:04,VALID,916.478,VALID,0,VALID,97.7322,VALID,0,VALID,18.5511,VALID,128,VALID,0,
2012-05-15, 03:26:04,VALID,916.489,VALID,0,VALID,97.7474,VALID,0,VALID,18.572,VALID,130,VALID,0,
2012-05-15, 03:27:04,VALID,916.484,VALID,0,VALID,97.7474,VALID,0,VALID,18.59,VALID,140,VALID,0,
2012-05-15, 03:28:04,VALID,916.497,VALID,0,VALID,97.7322,VALID,0,VALID,18.6109,VALID,125,VALID,0,
2012-05-15, 03:29:04,VALID,916.545,VALID,0,VALID,97.7398,VALID,0,VALID,18.629,VALID,127,VALID,0,
2012-05-15, 03:30:04,VALID,916.542,VALID,0,VALID,97.7322,VALID,0,VALID,18.6095,VALID,166,VALID,0,
2012-05-15, 03:31:04,VALID,916.549,VALID,0,VALID,97.7551,VALID,0,VALID,18.6095,VALID,161,VALID,0,
2012-05-15, 03:32:04,VALID,916.585,VALID,0,VALID,97.7474,VALID,0,VALID,18.6095,VALID,142,VALID,0,
2012-05-15, 03:33:04,VALID,916.579,VALID,0,VALID,97.7398,VALID,0,VALID,18.629,VALID,135,VALID,0,
2012-05-15, 03:34:04,VALID,916.557,VALID,0,VALID,97.7322,VALID,0,VALID,18.629,VALID,134,VALID,0,
2012-05-15, 03:35:04,VALID,916.567,VALID,0,VALID,97.7474,VALID,0,VALID,18.6485,VALID,132,VALID,0,
2012-05-15, 03:36:04,VALID,916.542,VALID,0,VALID,97.7551,VALID,0.107441,VALID,18.6694,VALID,135,VALID,0,
2012-05-15, 03:37:04,VALID,916.524,VALID,0,VALID,97.7398,VALID,0,VALID,18.6485,VALID,131,VALID,0,
2012-05-15, 03:38:04,VALID,916.485,VALID,0,VALID,97.7398,VALID,0,VALID,18.6485,VALID,118,VALID,0,
2012-05-15, 03:39:04,VALID,916.501,VALID,0,VALID,97.7398,VALID,0,VALID,18.6276,VALID,115,VALID,0,
2012-05-15, 03:40:04,VALID,916.49,VALID,0,VALID,97.7703,VALID,0,VALID,18.629,VALID,130,VALID,0,
2012-05-15, 03:41:04,VALID,916.483,VALID,0,VALID,97.7627,VALID,0,VALID,18.629,VALID,136,VALID,0,
2012-05-15, 03:42:04,VALID,916.494,VALID,0,VALID,97.7474,VALID,0,VALID,18.629,VALID,123,VALID,0,
2012-05-15, 03:43:04,VALID,916.5,VALID,0,VALID,97.7474,VALID,0,VALID,18.629,VALID,125,VALID,0,
2012-05-15, 03:44:04,VALID,916.522,VALID,0,VALID,97.7474,VALID,0,VALID,18.6095,VALID,161,VALID,0,
2012-05-15, 03:45:04,VALID,916.512,VALID,0,VALID,97.7322,VALID,0.107441,VALID,18.59,VALID,146,VALID,0,
2012-05-15, 03:46:04,VALID,916.485,VALID,0,VALID,97.7551,VALID,0.107441,VALID,18.5511,VALID,128,VALID,0,
2012-05-15, 03:47:04,VALID,916.451,VALID,0,VALID,97.7474,VALID,0,VALID,18.5705,VALID,150,VALID,0,
2012-05-15, 03:48:04,VALID,916.445,VALID,0,VALID,97.7703,VALID,0,VALID,18.5316,VALID,132,VALID,0,
2012-05-15, 03:49:04,VALID,916.404,VALID,0,VALID,97.7551,VALID,0,VALID,18.5525,VALID,152,VALID,0,
2012-05-15, 03:50:04,VALID,916.393,VALID,0,VALID,97.7703,VALID,0.107441,VALID,18.5121,VALID,161,VALID,0,
2012-05-15, 03:51:04,VALID,916.401,VALID,0,VALID,97.7627,VALID,0,VALID,18.5121,VALID,131,VALID,0,
2012-05-15, 03:52:04,VALID,916.363,VALID,0,VALID,97.7551,VALID,0.107441,VALID,18.4926,VALID,155,VALID,0,
2012-05-15, 03:53:04,VALID,916.365,VALID,0,VALID,97.7551,VALID,0,VALID,18.4731,VALID,129,VALID,0,
2012-05-15, 03:54:04,VALID,916.345,VALID,0,VALID,97.7779,VALID,0,VALID,18.4731,VALID,138,VALID,0,
2012-05-15, 03:55:04,VALID,916.337,VALID,0,VALID,97.7703,VALID,0,VALID,18.4341,VALID,123,VALID,0,